Time,TemperatureF,DewpointF,PressureIn,WindDirection,WindDirectionDegrees,WindSpeedMPH,WindSpeedGustMPH,Humidity,HourlyPrecipIn,Conditions,Clouds,dailyrainin,SoftwareType,DateUTC
2013-07-17 00:05:00,79.3,70.3,30.20,SE,139,0.0,0.0,74,0.00,,,0.00,Wunderground v.1.15,2013-07-17 05:05:00,
2013-07-17 00:11:00,79.2,70.2,30.19,SE,140,0.0,0.0,74,0.00,,,0.00,Wunderground v.1.15,2013-07-17 05:11:00,
2013-07-17 00:20:00,78.9,70.3,30.20,SE,139,0.0,0.0,75,0.00,,,0.00,Wunderground v.1.15,2013-07-17 05:20:00,
2013-07-17 00:26:00,78.8,70.2,30.20,SE,139,0.0,0.0,75,0.00,,,0.00,Wunderground v.1.15,2013-07-17 05:26:00,
2013-07-17 00:35:00,78.7,70.5,30.20,SE,139,0.0,0.0,76,0.00,,,0.00,Wunderground v.1.15,2013-07-17 05:35:00,
2013-07-17 00:40:00,78.6,70.4,30.20,SE,139,0.0,0.0,76,0.00,,,0.00,Wunderground v.1.15,2013-07-17 05:40:00,
2013-07-17 00:45:00,78.5,70.3,30.20,SE,139,0.0,0.0,76,0.00,,,0.00,Wunderground v.1.15,2013-07-17 05:45:00,
2013-07-17 00:50:00,78.4,70.2,30.20,SE,139,0.0,0.0,76,0.00,,,0.00,Wunderground v.1.15,2013-07-17 05:50:00,
2013-07-17 00:55:00,78.3,70.5,30.20,SE,139,0.0,0.0,77,0.00,,,0.00,Wunderground v.1.15,2013-07-17 05:55:00,
2013-07-17 01:01:00,78.3,70.5,30.19,SE,139,0.0,0.0,77,0.00,,,0.00,Wunderground v.1.15,2013-07-17 06:01:00,
2013-07-17 01:15:00,78.4,70.6,30.20,SE,141,0.0,0.0,77,0.00,,,0.00,Wunderground v.1.15,2013-07-17 06:15:00,
2013-07-17 01:25:00,78.3,70.5,30.20,SE,141,0.0,0.0,77,0.00,,,0.00,Wunderground v.1.15,2013-07-17 06:25:00,
2013-07-17 01:35:00,78.1,70.3,30.20,SE,141,0.0,0.0,77,0.00,,,0.00,Wunderground v.1.15,2013-07-17 06:35:00,
2013-07-17 01:41:00,77.9,70.1,30.20,SE,141,0.0,0.0,77,0.00,,,0.00,Wunderground v.1.15,2013-07-17 06:41:00,
2013-07-17 01:50:00,77.6,70.2,30.20,SE,141,0.0,0.0,78,0.00,,,0.00,Wunderground v.1.15,2013-07-17 06:50:00,
2013-07-17 01:55:00,77.5,70.1,30.20,SE,141,0.0,0.0,78,0.00,,,0.00,Wunderground v.1.15,2013-07-17 06:55:00,
2013-07-17 02:05:00,77.4,70.4,30.20,SE,141,0.0,0.0,79,0.00,,,0.00,Wunderground v.1.15,2013-07-17 07:05:00,
2013-07-17 02:15:00,77.3,69.9,30.19,SE,141,0.0,0.0,78,0.00,,,0.00,Wunderground v.1.15,2013-07-17 07:15:00,
2013-07-17 02:25:00,77.2,69.8,30.19,SE,141,0.0,0.0,78,0.00,,,0.00,Wunderground v.1.15,2013-07-17 07:25:00,
2013-07-17 02:35:00,76.8,69.8,30.19,SE,141,0.0,0.0,79,0.00,,,0.00,Wunderground v.1.15,2013-07-17 07:35:00,
2013-07-17 02:41:00,76.5,69.9,30.20,SE,141,0.0,0.0,80,0.00,,,0.00,Wunderground v.1.15,2013-07-17 07:41:00,
2013-07-17 02:50:00,76.2,69.9,30.20,SE,141,0.0,0.0,81,0.00,,,0.00,Wunderground v.1.15,2013-07-17 07:50:00,
2013-07-17 02:55:00,76.0,69.7,30.20,SE,141,0.0,0.0,81,0.00,,,0.00,Wunderground v.1.15,2013-07-17 07:55:00,
2013-07-17 03:05:00,75.9,69.6,30.20,SE,141,0.0,0.0,81,0.00,,,0.00,Wunderground v.1.15,2013-07-17 08:05:00,
2013-07-17 03:15:00,75.9,69.6,30.20,SE,141,0.0,0.0,81,0.00,,,0.00,Wunderground v.1.15,2013-07-17 08:15:00,
2013-07-17 03:20:00,76.0,69.7,30.20,SE,141,0.0,0.0,81,0.00,,,0.00,Wunderground v.1.15,2013-07-17 08:20:00,
2013-07-17 03:26:00,76.0,69.7,30.20,SE,141,0.0,0.0,81,0.00,,,0.00,Wunderground v.1.15,2013-07-17 08:26:00,
2013-07-17 03:35:00,75.8,69.6,30.20,SE,141,0.0,0.0,81,0.00,,,0.00,Wunderground v.1.15,2013-07-17 08:35:00,
2013-07-17 03:40:00,75.7,69.5,30.20,SE,141,0.0,0.0,81,0.00,,,0.00,Wunderground v.1.15,2013-07-17 08:40:00,
2013-07-17 03:50:00,75.5,69.3,30.20,SE,141,0.0,0.0,81,0.00,,,0.00,Wunderground v.1.15,2013-07-17 08:50:00,
2013-07-17 03:56:00,75.4,69.5,30.20,SE,141,0.0,0.0,82,0.00,,,0.00,Wunderground v.1.15,2013-07-17 08:56:00,
2013-07-17 04:05:00,75.3,69.4,30.20,SE,141,0.0,0.0,82,0.00,,,0.00,Wunderground v.1.15,2013-07-17 09:05:00,
2013-07-17 04:10:00,75.2,69.3,30.20,SE,141,0.0,0.0,82,0.00,,,0.00,Wunderground v.1.15,2013-07-17 09:10:00,
2013-07-17 04:20:00,75.8,69.6,30.20,SE,141,0.0,0.0,81,0.00,,,0.00,Wunderground v.1.15,2013-07-17 09:20:00,
2013-07-17 04:30:00,75.9,69.3,30.20,SE,141,0.0,0.0,80,0.00,,,0.00,Wunderground v.1.15,2013-07-17 09:30:00,
2013-07-17 04:45:00,76.0,69.7,30.20,SE,141,0.0,0.0,81,0.00,,,0.00,Wunderground v.1.15,2013-07-17 09:45:00,
2013-07-17 04:50:00,76.0,69.7,30.20,SE,141,0.0,0.0,81,0.00,,,0.00,Wunderground v.1.15,2013-07-17 09:50:00,
2013-07-17 05:00:00,75.9,69.6,30.20,SE,141,0.0,0.0,81,0.00,,,0.00,Wunderground v.1.15,2013-07-17 10:00:00,
2013-07-17 05:15:00,75.8,69.6,30.20,SE,141,0.0,0.0,81,0.00,,,0.00,Wunderground v.1.15,2013-07-17 10:15:00,
2013-07-17 05:25:00,75.6,69.7,30.20,SE,141,0.0,0.0,82,0.00,,,0.00,Wunderground v.1.15,2013-07-17 10:25:00,
2013-07-17 05:30:00,75.6,69.7,30.20,SE,141,0.0,0.0,82,0.00,,,0.00,Wunderground v.1.15,2013-07-17 10:30:00,
2013-07-17 05:40:00,75.4,69.5,30.20,SSE,156,0.0,0.0,82,0.00,,,0.00,Wunderground v.1.15,2013-07-17 10:40:00,
2013-07-17 05:50:00,75.3,69.8,30.20,SSE,156,0.0,0.0,83,0.00,,,0.00,Wunderground v.1.15,2013-07-17 10:50:00,
2013-07-17 05:55:00,75.2,69.7,30.20,SSE,156,0.0,0.0,83,0.00,,,0.00,Wunderground v.1.15,2013-07-17 10:55:00,
2013-07-17 06:05:00,75.1,69.6,30.21,East,99,0.0,1.0,83,0.00,,,0.00,Wunderground v.1.15,2013-07-17 11:05:00,
2013-07-17 06:10:00,75.0,69.5,30.20,East,98,0.0,0.0,83,0.00,,,0.00,Wunderground v.1.15,2013-07-17 11:10:00,
2013-07-17 06:15:00,74.8,69.3,30.21,East,98,0.0,0.0,83,0.00,,,0.00,Wunderground v.1.15,2013-07-17 11:15:00,
2013-07-17 06:30:00,74.5,69.3,30.21,East,98,0.0,0.0,84,0.00,,,0.00,Wunderground v.1.15,2013-07-17 11:30:00,
2013-07-17 06:40:00,74.4,69.6,30.21,East,98,0.0,0.0,85,0.00,,,0.00,Wunderground v.1.15,2013-07-17 11:40:00,
2013-07-17 06:45:00,74.4,69.6,30.21,East,99,0.0,0.0,85,0.00,,,0.00,Wunderground v.1.15,2013-07-17 11:45:00,
2013-07-17 06:55:00,74.4,69.6,30.21,East,98,0.0,0.0,85,0.00,,,0.00,Wunderground v.1.15,2013-07-17 11:55:00,
2013-07-17 07:05:00,74.4,69.6,30.22,East,98,0.0,0.0,85,0.00,,,0.00,Wunderground v.1.15,2013-07-17 12:05:00,
2013-07-17 07:11:00,74.5,69.7,30.22,ESE,114,0.0,0.0,85,0.00,,,0.00,Wunderground v.1.15,2013-07-17 12:11:00,
2013-07-17 07:20:00,74.6,69.8,30.22,ESE,115,0.0,0.0,85,0.00,,,0.00,Wunderground v.1.15,2013-07-17 12:20:00,
2013-07-17 07:25:00,74.7,69.9,30.22,South,180,0.0,0.0,85,0.00,,,0.00,Wunderground v.1.15,2013-07-17 12:25:00,
2013-07-17 07:30:00,74.8,69.6,30.22,South,179,0.0,0.0,84,0.00,,,0.00,Wunderground v.1.15,2013-07-17 12:30:00,
2013-07-17 07:40:00,75.1,69.9,30.22,WSW,244,0.0,0.0,84,0.00,,,0.00,Wunderground v.1.15,2013-07-17 12:40:00,
2013-07-17 07:50:00,75.4,69.9,30.23,SSW,211,0.0,0.0,83,0.00,,,0.00,Wunderground v.1.15,2013-07-17 12:50:00,
2013-07-17 07:56:00,75.6,69.7,30.23,South,186,0.0,0.0,82,0.00,,,0.00,Wunderground v.1.15,2013-07-17 12:56:00,
2013-07-17 08:05:00,76.0,70.1,30.23,SSW,193,0.0,0.0,82,0.00,,,0.00,Wunderground v.1.15,2013-07-17 13:05:00,
2013-07-17 08:10:00,76.1,70.2,30.23,SSW,193,0.0,0.0,82,0.00,,,0.00,Wunderground v.1.15,2013-07-17 13:10:00,
2013-07-17 08:20:00,76.4,70.1,30.23,SSW,197,0.0,0.0,81,0.00,,,0.00,Wunderground v.1.15,2013-07-17 13:20:00,
2013-07-17 08:25:00,76.7,70.1,30.24,SSW,211,0.0,0.0,80,0.00,,,0.00,Wunderground v.1.15,2013-07-17 13:25:00,
2013-07-17 08:30:00,77.0,70.0,30.24,SSW,195,1.0,1.0,79,0.00,,,0.00,Wunderground v.1.15,2013-07-17 13:30:00,
2013-07-17 08:40:00,77.6,70.6,30.24,SW,215,0.0,0.0,79,0.00,,,0.00,Wunderground v.1.15,2013-07-17 13:40:00,
2013-07-17 08:45:00,77.8,70.0,30.24,SSW,207,0.0,1.0,77,0.00,,,0.00,Wunderground v.1.15,2013-07-17 13:45:00,
2013-07-17 08:55:00,78.3,69.7,30.24,SSW,202,0.0,0.0,75,0.00,,,0.00,Wunderground v.1.15,2013-07-17 13:55:00,
2013-07-17 09:05:00,78.8,70.2,30.24,SW,235,0.0,0.0,75,0.00,,,0.00,Wunderground v.1.15,2013-07-17 14:05:00,
2013-07-17 09:10:00,78.9,69.5,30.24,South,186,0.0,0.0,73,0.00,,,0.00,Wunderground v.1.15,2013-07-17 14:10:00,
2013-07-17 09:20:00,79.4,70.4,30.24,SW,219,0.0,0.0,74,0.00,,,0.00,Wunderground v.1.15,2013-07-17 14:20:00,
2013-07-17 09:31:00,80.1,71.1,30.24,SSW,203,0.0,0.0,74,0.00,,,0.00,Wunderground v.1.15,2013-07-17 14:31:00,
2013-07-17 09:40:00,80.6,71.1,30.24,SW,226,0.0,0.0,73,0.00,,,0.00,Wunderground v.1.15,2013-07-17 14:40:00,
2013-07-17 09:46:00,80.8,70.5,30.24,SSW,200,0.0,0.0,71,0.00,,,0.00,Wunderground v.1.15,2013-07-17 14:46:00,
2013-07-17 09:55:00,81.4,71.5,30.24,South,179,0.0,0.0,72,0.00,,,0.00,Wunderground v.1.15,2013-07-17 14:55:00,
2013-07-17 10:00:00,81.6,71.3,30.24,SSW,197,0.0,0.0,71,0.00,,,0.00,Wunderground v.1.15,2013-07-17 15:00:00,
2013-07-17 10:10:00,82.2,71.9,30.23,SW,228,0.0,0.0,71,0.00,,,0.00,Wunderground v.1.15,2013-07-17 15:10:00,
2013-07-17 10:20:00,82.6,70.5,30.23,South,170,0.0,0.0,67,0.00,,,0.00,Wunderground v.1.15,2013-07-17 15:20:00,
2013-07-17 10:30:00,83.1,71.0,30.23,South,185,0.0,0.0,67,0.00,,,0.00,Wunderground v.1.15,2013-07-17 15:30:00,
2013-07-17 10:35:00,83.4,70.8,30.23,SSE,155,0.0,0.0,66,0.00,,,0.00,Wunderground v.1.15,2013-07-17 15:35:00,
2013-07-17 10:45:00,83.9,70.4,30.23,SSW,210,1.0,1.0,64,0.00,,,0.00,Wunderground v.1.15,2013-07-17 15:45:00,
2013-07-17 10:50:00,84.2,70.2,30.23,SW,222,1.0,1.0,63,0.00,,,0.00,Wunderground v.1.15,2013-07-17 15:50:00,
2013-07-17 11:00:00,84.7,69.3,30.23,SSW,193,0.0,0.0,60,0.00,,,0.00,Wunderground v.1.15,2013-07-17 16:00:00,
2013-07-17 11:11:00,85.3,70.8,30.23,SSE,168,0.0,1.0,62,0.00,,,0.00,Wunderground v.1.15,2013-07-17 16:11:00,
2013-07-17 11:20:00,86.0,71.5,30.23,WSW,253,0.0,0.0,62,0.00,,,0.00,Wunderground v.1.15,2013-07-17 16:20:00,
2013-07-17 11:25:00,86.4,70.9,30.23,SSW,210,0.0,1.0,60,0.00,,,0.00,Wunderground v.1.15,2013-07-17 16:25:00,
2013-07-17 11:30:00,86.5,71.5,30.23,SW,233,1.0,1.0,61,0.00,,,0.00,Wunderground v.1.15,2013-07-17 16:30:00,
2013-07-17 11:40:00,87.1,70.5,30.23,SSW,210,1.0,1.0,58,0.00,,,0.00,Wunderground v.1.15,2013-07-17 16:40:00,
2013-07-17 11:50:00,87.3,69.2,30.23,SW,217,1.0,1.0,55,0.00,,,0.00,Wunderground v.1.15,2013-07-17 16:50:00,
2013-07-17 11:55:00,87.4,70.3,30.23,SSE,162,1.0,1.0,57,0.00,,,0.00,Wunderground v.1.15,2013-07-17 16:55:00,
2013-07-17 12:05:00,87.9,69.2,30.23,SW,217,1.0,3.0,54,0.00,,,0.00,Wunderground v.1.15,2013-07-17 17:05:00,
2013-07-17 12:10:00,88.0,69.8,30.23,SE,136,2.0,2.0,55,0.00,,,0.00,Wunderground v.1.15,2013-07-17 17:10:00,
2013-07-17 12:20:00,88.0,69.8,30.22,SSE,160,2.0,2.0,55,0.00,,,0.00,Wunderground v.1.15,2013-07-17 17:20:00,
2013-07-17 12:30:00,88.1,70.4,30.22,SW,235,1.0,1.0,56,0.00,,,0.00,Wunderground v.1.15,2013-07-17 17:30:00,
2013-07-17 12:40:00,87.9,70.8,30.22,SSE,153,1.0,1.0,57,0.00,,,0.00,Wunderground v.1.15,2013-07-17 17:40:00,
2013-07-17 12:45:00,88.3,70.1,30.22,SSE,158,2.0,2.0,55,0.00,,,0.00,Wunderground v.1.15,2013-07-17 17:45:00,
2013-07-17 12:55:00,88.2,70.5,30.22,SW,221,2.0,2.0,56,0.00,,,0.00,Wunderground v.1.15,2013-07-17 17:55:00,
2013-07-17 13:00:00,88.6,70.4,30.22,SE,145,1.0,1.0,55,0.00,,,0.00,Wunderground v.1.15,2013-07-17 18:00:00,
2013-07-17 13:06:00,89.1,69.7,30.22,SW,226,1.0,4.0,53,0.00,,,0.00,Wunderground v.1.15,2013-07-17 18:06:00,
2013-07-17 13:15:00,88.9,69.6,30.21,SW,226,2.0,2.0,53,0.00,,,0.00,Wunderground v.1.15,2013-07-17 18:15:00,
2013-07-17 13:25:00,89.1,69.7,30.21,ESE,118,2.0,2.0,53,0.00,,,0.00,Wunderground v.1.15,2013-07-17 18:25:00,
2013-07-17 13:30:00,89.4,71.1,30.21,SSW,211,1.0,1.0,55,0.00,,,0.00,Wunderground v.1.15,2013-07-17 18:30:00,
2013-07-17 13:40:00,90.5,70.5,30.21,South,179,2.0,3.0,52,0.00,,,0.00,Wunderground v.1.15,2013-07-17 18:40:00,
2013-07-17 13:51:00,90.6,72.2,30.20,SW,214,2.0,2.0,55,0.00,,,0.00,Wunderground v.1.15,2013-07-17 18:51:00,
2013-07-17 14:00:00,91.6,70.3,30.20,SSE,152,2.0,3.0,50,0.00,,,0.00,Wunderground v.1.15,2013-07-17 19:00:00,
2013-07-17 14:06:00,91.5,70.8,30.20,SW,214,2.0,3.0,51,0.00,,,0.00,Wunderground v.1.15,2013-07-17 19:06:00,
2013-07-17 14:15:00,91.4,70.7,30.19,SSE,150,1.0,3.0,51,0.00,,,0.00,Wunderground v.1.15,2013-07-17 19:15:00,
2013-07-17 14:25:00,91.4,70.7,30.19,West,263,1.0,1.0,51,0.00,,,0.00,Wunderground v.1.15,2013-07-17 19:25:00,
2013-07-17 14:30:00,91.7,70.4,30.19,SE,124,1.0,1.0,50,0.00,,,0.00,Wunderground v.1.15,2013-07-17 19:30:00,
2013-07-17 14:36:00,91.7,70.4,30.19,SE,140,1.0,1.0,50,0.00,,,0.00,Wunderground v.1.15,2013-07-17 19:36:00,
2013-07-17 14:45:00,92.2,71.5,30.18,SSW,207,1.0,5.0,51,0.00,,,0.00,Wunderground v.1.15,2013-07-17 19:45:00,
2013-07-17 14:55:00,91.9,70.6,30.18,SE,139,1.0,2.0,50,0.00,,,0.00,Wunderground v.1.15,2013-07-17 19:55:00,
2013-07-17 15:00:00,92.4,69.9,30.18,SSE,149,2.0,2.0,48,0.00,,,0.00,Wunderground v.1.15,2013-07-17 20:00:00,
2013-07-17 15:06:00,92.1,70.8,30.17,ESE,105,2.0,2.0,50,0.00,,,0.00,Wunderground v.1.15,2013-07-17 20:06:00,
2013-07-17 15:15:00,92.9,70.9,30.17,SW,217,2.0,3.0,49,0.00,,,0.00,Wunderground v.1.15,2013-07-17 20:15:00,
2013-07-17 15:21:00,92.4,70.5,30.17,SSE,153,2.0,2.0,49,0.00,,,0.00,Wunderground v.1.15,2013-07-17 20:21:00,
2013-07-17 15:30:00,91.5,70.8,30.17,WSW,250,2.0,2.0,51,0.00,,,0.00,Wunderground v.1.15,2013-07-17 20:30:00,
2013-07-17 15:40:00,91.0,70.4,30.17,SSE,148,2.0,2.0,51,0.00,,,0.00,Wunderground v.1.15,2013-07-17 20:40:00,
2013-07-17 15:45:00,90.8,71.3,30.16,SSE,150,1.0,4.0,53,0.00,,,0.00,Wunderground v.1.15,2013-07-17 20:45:00,
2013-07-17 15:52:00,91.4,72.4,30.16,South,188,2.0,2.0,54,0.00,,,0.00,Wunderground v.1.15,2013-07-17 20:52:00,
2013-07-17 16:00:00,90.8,70.2,30.16,SSE,168,2.0,3.0,51,0.00,,,0.00,Wunderground v.1.15,2013-07-17 21:00:00,
2013-07-17 16:06:00,90.4,69.8,30.16,SW,222,1.0,3.0,51,0.00,,,0.00,Wunderground v.1.15,2013-07-17 21:06:00,
2013-07-17 16:15:00,90.8,71.3,30.16,SSW,205,1.0,2.0,53,0.00,,,0.00,Wunderground v.1.15,2013-07-17 21:15:00,
2013-07-17 16:21:00,91.8,72.2,30.16,South,169,1.0,3.0,53,0.00,,,0.00,Wunderground v.1.15,2013-07-17 21:21:00,
2013-07-17 16:30:00,91.0,71.5,30.15,ESE,120,2.0,2.0,53,0.00,,,0.00,Wunderground v.1.15,2013-07-17 21:30:00,
2013-07-17 16:40:00,91.4,71.3,30.15,SSW,205,1.0,2.0,52,0.00,,,0.00,Wunderground v.1.15,2013-07-17 21:40:00,
2013-07-17 16:45:00,91.1,71.6,30.15,South,175,1.0,2.0,53,0.00,,,0.00,Wunderground v.1.15,2013-07-17 21:45:00,
2013-07-17 16:51:00,90.8,71.3,30.15,WSW,245,1.0,1.0,53,0.00,,,0.00,Wunderground v.1.15,2013-07-17 21:51:00,
2013-07-17 17:00:00,89.8,71.5,30.14,SSW,211,1.0,2.0,55,0.00,,,0.00,Wunderground v.1.15,2013-07-17 22:00:00,
2013-07-17 17:10:00,90.1,71.2,30.15,South,184,2.0,3.0,54,0.00,,,0.00,Wunderground v.1.15,2013-07-17 22:10:00,
2013-07-17 17:15:00,89.9,71.6,30.15,South,171,2.0,3.0,55,0.00,,,0.00,Wunderground v.1.15,2013-07-17 22:15:00,
2013-07-17 17:25:00,90.2,72.4,30.14,WSW,258,2.0,2.0,56,0.00,,,0.00,Wunderground v.1.15,2013-07-17 22:25:00,
2013-07-17 17:31:00,90.0,71.7,30.14,ESE,104,1.0,1.0,55,0.00,,,0.00,Wunderground v.1.15,2013-07-17 22:31:00,
2013-07-17 17:41:00,90.3,71.9,30.14,SSE,159,1.0,3.0,55,0.00,,,0.00,Wunderground v.1.15,2013-07-17 22:41:00,
2013-07-17 17:50:00,89.9,71.0,30.13,SE,145,1.0,1.0,54,0.00,,,0.00,Wunderground v.1.15,2013-07-17 22:50:00,
2013-07-17 17:55:00,89.6,69.6,30.13,SSE,150,1.0,1.0,52,0.00,,,0.00,Wunderground v.1.15,2013-07-17 22:55:00,
2013-07-17 18:05:00,89.4,70.6,30.13,SE,132,1.0,1.0,54,0.00,,,0.00,Wunderground v.1.15,2013-07-17 23:05:00,
2013-07-17 18:11:00,89.5,71.2,30.13,South,179,1.0,1.0,55,0.00,,,0.00,Wunderground v.1.15,2013-07-17 23:11:00,
2013-07-17 18:20:00,89.5,71.7,30.13,SSW,208,1.0,2.0,56,0.00,,,0.00,Wunderground v.1.15,2013-07-17 23:20:00,
2013-07-17 18:31:00,89.5,72.3,30.12,SW,226,1.0,1.0,57,0.00,,,0.00,Wunderground v.1.15,2013-07-17 23:31:00,
2013-07-17 18:35:00,89.3,72.1,30.12,SSE,163,2.0,2.0,57,0.00,,,0.00,Wunderground v.1.15,2013-07-17 23:35:00,
2013-07-17 18:45:00,88.8,71.6,30.12,South,191,1.0,2.0,57,0.00,,,0.00,Wunderground v.1.15,2013-07-17 23:45:00,
2013-07-17 18:50:00,88.8,70.5,30.12,SSW,193,0.0,2.0,55,0.00,,,0.00,Wunderground v.1.15,2013-07-17 23:50:00,
2013-07-17 19:00:00,88.9,71.2,30.12,SSE,148,0.0,0.0,56,0.00,,,0.00,Wunderground v.1.15,2013-07-18 00:00:00,
2013-07-17 19:10:00,88.8,70.5,30.12,SE,141,0.0,0.0,55,0.00,,,0.00,Wunderground v.1.15,2013-07-18 00:10:00,
2013-07-17 19:20:00,88.5,71.3,30.12,SSE,155,0.0,1.0,57,0.00,,,0.00,Wunderground v.1.15,2013-07-18 00:20:00,
2013-07-17 19:25:00,88.4,71.2,30.12,SE,141,0.0,1.0,57,0.00,,,0.00,Wunderground v.1.15,2013-07-18 00:25:00,
2013-07-17 19:35:00,88.0,71.4,30.11,SSE,165,0.0,0.0,58,0.00,,,0.00,Wunderground v.1.15,2013-07-18 00:35:00,
2013-07-17 19:41:00,87.9,71.8,30.11,SSE,164,0.0,0.0,59,0.00,,,0.00,Wunderground v.1.15,2013-07-18 00:41:00,
2013-07-17 19:51:00,87.7,71.6,30.11,SE,129,0.0,0.0,59,0.00,,,0.00,Wunderground v.1.15,2013-07-18 00:51:00,
2013-07-17 19:56:00,87.7,72.1,30.11,ESE,108,0.0,0.0,60,0.00,,,0.00,Wunderground v.1.15,2013-07-18 00:56:00,
2013-07-17 20:05:00,87.3,72.2,30.11,ESE,123,0.0,1.0,61,0.00,,,0.00,Wunderground v.1.15,2013-07-18 01:05:00,
2013-07-17 20:10:00,87.1,72.0,30.11,SSE,163,0.0,0.0,61,0.00,,,0.00,Wunderground v.1.15,2013-07-18 01:10:00,
2013-07-17 20:20:00,86.8,71.7,30.11,SE,135,0.0,0.0,61,0.00,,,0.00,Wunderground v.1.15,2013-07-18 01:20:00,
2013-07-17 20:30:00,86.4,71.8,30.11,SSE,150,0.0,0.0,62,0.00,,,0.00,Wunderground v.1.15,2013-07-18 01:30:00,
2013-07-17 20:35:00,86.2,71.6,30.11,SSE,158,0.0,0.0,62,0.00,,,0.00,Wunderground v.1.15,2013-07-18 01:35:00,
2013-07-17 20:41:00,86.0,71.9,30.10,SSE,158,0.0,0.0,63,0.00,,,0.00,Wunderground v.1.15,2013-07-18 01:41:00,
2013-07-17 20:50:00,85.6,71.6,30.10,SSE,148,0.0,0.0,63,0.00,,,0.00,Wunderground v.1.15,2013-07-18 01:50:00,
2013-07-17 20:56:00,85.3,71.7,30.10,SSE,159,0.0,0.0,64,0.00,,,0.00,Wunderground v.1.15,2013-07-18 01:56:00,
2013-07-17 21:05:00,85.0,71.9,30.10,SSE,158,0.0,0.0,65,0.00,,,0.00,Wunderground v.1.15,2013-07-18 02:05:00,
2013-07-17 21:10:00,84.7,71.6,30.10,SSE,158,0.0,0.0,65,0.00,,,0.00,Wunderground v.1.15,2013-07-18 02:10:00,
2013-07-17 21:15:00,84.6,72.0,30.10,SSE,152,0.0,0.0,66,0.00,,,0.00,Wunderground v.1.15,2013-07-18 02:15:00,
2013-07-17 21:25:00,84.2,72.0,30.10,SSE,152,0.0,0.0,67,0.00,,,0.00,Wunderground v.1.15,2013-07-18 02:25:00,
2013-07-17 21:30:00,84.0,71.9,30.10,SSE,152,0.0,0.0,67,0.00,,,0.00,Wunderground v.1.15,2013-07-18 02:30:00,
2013-07-17 21:35:00,83.8,72.1,30.10,SSE,157,0.0,0.0,68,0.00,,,0.00,Wunderground v.1.15,2013-07-18 02:35:00,
2013-07-17 21:45:00,83.5,71.8,30.10,SSE,156,0.0,0.0,68,0.00,,,0.00,Wunderground v.1.15,2013-07-18 02:45:00,
2013-07-17 21:51:00,83.3,72.1,30.10,SSE,156,0.0,0.0,69,0.00,,,0.00,Wunderground v.1.15,2013-07-18 02:51:00,
2013-07-17 22:00:00,83.1,71.9,30.11,SE,145,0.0,0.0,69,0.00,,,0.00,Wunderground v.1.15,2013-07-18 03:00:00,
2013-07-17 22:05:00,83.0,72.2,30.11,SE,145,0.0,0.0,70,0.00,,,0.00,Wunderground v.1.15,2013-07-18 03:05:00,
2013-07-17 22:15:00,82.8,72.0,30.11,SSE,148,0.0,0.0,70,0.00,,,0.00,Wunderground v.1.15,2013-07-18 03:15:00,
2013-07-17 22:21:00,82.6,71.8,30.11,SSE,148,0.0,0.0,70,0.00,,,0.00,Wunderground v.1.15,2013-07-18 03:21:00,
2013-07-17 22:30:00,82.3,72.0,30.11,SSE,149,0.0,0.0,71,0.00,,,0.00,Wunderground v.1.15,2013-07-18 03:30:00,
2013-07-17 22:36:00,82.2,72.3,30.11,SSE,149,0.0,0.0,72,0.00,,,0.00,Wunderground v.1.15,2013-07-18 03:36:00,
2013-07-17 22:45:00,82.0,72.1,30.11,SSE,150,0.0,0.0,72,0.00,,,0.00,Wunderground v.1.15,2013-07-18 03:45:00,
2013-07-17 22:50:00,81.8,71.9,30.11,SSE,149,0.0,0.0,72,0.00,,,0.00,Wunderground v.1.15,2013-07-18 03:50:00,
2013-07-17 23:00:00,81.6,71.7,30.11,SE,145,0.0,0.0,72,0.00,,,0.00,Wunderground v.1.15,2013-07-18 04:00:00,
2013-07-17 23:05:00,81.5,72.0,30.11,SE,139,0.0,0.0,73,0.00,,,0.00,Wunderground v.1.15,2013-07-18 04:05:00,
2013-07-17 23:10:00,81.3,71.8,30.11,SSE,151,0.0,0.0,73,0.00,,,0.00,Wunderground v.1.15,2013-07-18 04:10:00,
2013-07-17 23:15:00,81.2,71.7,30.11,SE,145,0.0,0.0,73,0.00,,,0.00,Wunderground v.1.15,2013-07-18 04:15:00,
2013-07-17 23:20:00,81.1,72.0,30.11,SE,146,0.0,0.0,74,0.00,,,0.00,Wunderground v.1.15,2013-07-18 04:20:00,
2013-07-17 23:25:00,81.0,71.9,30.11,SSE,148,0.0,0.0,74,0.00,,,0.00,Wunderground v.1.15,2013-07-18 04:25:00,
2013-07-17 23:40:00,80.5,71.8,30.11,SSE,156,0.0,0.0,75,0.00,,,0.00,Wunderground v.1.15,2013-07-18 04:40:00,
2013-07-17 23:45:00,80.5,71.8,30.11,SSE,149,0.0,0.0,75,0.00,,,0.00,Wunderground v.1.15,2013-07-18 04:45:00,
2013-07-17 23:55:00,80.4,71.7,30.11,SSE,156,0.0,1.0,75,0.00,,,0.00,Wunderground v.1.15,2013-07-18 04:55:00,